Weather in Putao

Myanmar     27˚22′00″N   97˚24′00″E
temp.,
°C
wind,
m/s
gust,
m/s
humid.,
%
clouds,
%
prec.,
mm/h
press.,
hPa
HPBL,
m
17 january, sun
sun1700:30+12˚w018170 0.0 101823
03:30+11˚se008154 0.0 101722
06:30+10˚w018553 0.0 101822
09:30+17˚n015385 0.0 1019292
12:30+24˚n123477 0.0 10161009
15:30+24˚sw12340 0.0 10141818
18:30+16˚w115911 0.0 101726
21:30+13˚wnw11700 0.0 102023
18 january, mon
mon1800:30+11˚wnw11730 0.0 102023
03:30+10˚wnw11750 0.0 101923
06:30+10˚nw017623 0.0 101922
09:30+16˚nne015126 0.0 1020197
12:30+25˚n112714 0.0 1016731
15:30+24˚wsw123333 0.0 10131132
18:30+17˚wsw115563 0.0 101525
21:30+14˚w116670 0.0 101724
19 january, tue
tue1900:30+14˚nw017582 0.1 101727
03:30+12˚wnw118589 0.1 101525
06:30+11˚w118884 0.3 101522
09:30+16˚se116990 0.4 1016330
12:30+18˚se236491 1.4 1014593
15:30+19˚se116199 0.2 1012382
18:30+14˚w128993 0.4 101475
21:30+11˚wnw11962 0.0 101623
20 january, wed
wed2000:30+12˚w018945 0.1 101527
03:30+11˚w119897 0.6 101429
06:30+11˚w119386 0.5 101528
09:30+13˚nw1389100 0.4 1016255
12:30+20˚nnw116368 1.6 1014706
15:30+17˚sse139091 1.3 1013234
18:30+13˚wnw119795 2.5 101523
21:30+12˚wnw0199100 2.0 101725
21 january, thu
thu2100:30+12˚nw1199100 2.9 101624
03:30+10˚w119954 0.3 101623
06:30+9˚w119860 0.7 101638
09:30+13˚n118758 0.3 1018258
12:30+21˚ese114939 1.0 10151039
15:30+21˚ese12500 0.9 10131448
18:30+12˚w119732 2.2 101624
21:30+12˚wnw119788 0.6 101825